This is the latest recevied weather packets stored in our database for station/object LU5DTF-WX. If no packets are shown the sender has not sent any weather packets the latest 10 day(s).
| Time | Temp. | Humidity | Pressure | Rain* | Wind** | Luminosity | Snow |
|---|---|---|---|---|---|---|---|
| 1787808903 | 11.11° C | 89% | 1005.4 hPa | 3.05 mm | - | - | - |
| 1787808603 | 11.67° C | 89% | 1005.2 hPa | 3.05 mm | - | - | - |
| 1787808303 | 11.67° C | 88% | 1005.6 hPa | 3.05 mm | - | - | - |
| 1787808003 | 12.22° C | 89% | 1005.8 hPa | 3.05 mm | - | - | - |
| 1787807703 | 11.67° C | 90% | 1006 hPa | 3.05 mm | - | - | - |
| 1787807403 | 11.67° C | 89% | 1005.7 hPa | 2.79 mm | - | - | - |
| 1787807103 | 12.22° C | 90% | 1006 hPa | 2.79 mm | - | - | - |
| 1787806803 | 11.67° C | 91% | 1007.3 hPa | 2.54 mm | - | - | - |
| 1787806503 | 11.67° C | 91% | 1007.4 hPa | 2.54 mm | - | - | - |
| 1787806203 | 11.11° C | 91% | 1007.7 hPa | 2.29 mm | - | - | - |
| 1787805903 | 11.11° C | 91% | 1007.4 hPa | 2.03 mm | - | - | - |
| 1787805603 | 11.11° C | 90% | 1007.4 hPa | 0 mm | - | - | - |
| 1787805303 | 11.11° C | 90% | 1006.8 hPa | 0 mm | - | - | - |
| 1787805003 | 11.11° C | 90% | 1006.8 hPa | 0 mm | - | - | - |
| 1787804703 | 11.11° C | 90% | 1007.3 hPa | 0 mm | - | - | - |
| 1787804403 | 11.11° C | 90% | 1007.3 hPa | 0 mm | - | - | - |
| 1787804103 | 11.11° C | 90% | 1007.4 hPa | 0 mm | - | - | - |
| 1787803803 | 11.11° C | 90% | 1007.4 hPa | 0 mm | - | - | - |
| 1787803503 | 11.11° C | 90% | 1007.3 hPa | 0 mm | - | - | - |
| 1787803203 | 11.11° C | 90% | 1007.8 hPa | 0 mm | - | - | - |
| 1787802903 | 11.11° C | 90% | 1007.8 hPa | 0 mm | - | - | - |
| 1787802603 | 11.11° C | 90% | 1007.8 hPa | 0 mm | - | - | - |
| 1787802303 | 11.11° C | 90% | 1007.9 hPa | 0 mm | - | - | - |
| 1787802003 | 11.11° C | 90% | 1007.9 hPa | 0.25 mm | - | - | - |
| 1787801703 | 11.11° C | 90% | 1008.2 hPa | 0.25 mm | - | - | - |
* Rain latest hour (hover to see other rain measurements)
** Current wind speed in m/s (hover to see current wind gust speed)